Location: Waco, TX
(31.5480°N, 97.1670°W)
Time: 10:01:12
(UTC-05:00)

ISS - Pass Details

Date: 19 June 2018
Orbit: 402 x 406 km, 51.6° (Epoch: 20 June)

Event Time Altitude Azimuth Distance (km) Brightness Sun altitude
Rises 08:57:41 0° 191° (S) 2,308 -0.2 30.0°
Reaches altitude 10° 09:00:15 10° 170° (S) 1,453 -0.9 30.5°
Maximum altitude 09:02:27 17° 127° (SE) 1,111 -0.8 31.0°
Drops below altitude 10° 09:04:39 10° 84° (E) 1,459 0.6 31.4°
Sets 09:07:13 0° 64° (ENE) 2,323 1.0 32.0°
